Location: Terralba
(39.7192°N, 8.6392°E)
Time: 20:40:54
(UTC+00:00)

Daily predictions for brighter satellites

Satellite Brightness Start Highest point End
(mag) Time Altitude Azimuth Time Altitude Azimuth Time Altitude Azimuth
Meteor 2-2 Rocket 4.5 16:27:12 10° S 16:33:11 86° W 16:39:07 10° N
YAOGAN 6 2.6 16:29:57 10° SSE 16:33:36 70° ENE 16:37:14 10° N
Abrixas rocket 2.5 16:31:37 10° NW 16:34:11 34° NNE 16:36:45 10° E
Cosmos 1500 Rocket 3.5 16:30:49 10° N 16:35:13 70° E 16:39:37 10° SSE
CZ-4C R/B 4.0 16:37:03 10° N 16:40:34 52° WNW 16:44:06 10° SSW
NOSS 2-1 (C) 4.5 16:35:50 10° NNW 16:41:13 71° NE 16:48:51 10° SE
Cosmos 405 Rocket 2.7 16:39:30 10° N 16:43:25 77° E 16:47:22 10° SSE
Cosmos 389 Rocket 3.2 16:41:49 10° SSE 16:44:54 31° E 16:47:58 10° NNE
ADEOS Rocket 4.1 16:38:18 10° N 16:45:52 64° WNW 16:53:30 10° SSW
NOSS 2-1 (D) 4.5 16:41:16 10° NNW 16:46:42 78° ENE 16:54:26 10° SE
Cosmos 1943 Rocket 3.8 16:46:21 10° NNE 16:48:31 12° NE 16:50:06 11° ENE
H-2A R/B 3.1 16:44:26 10° S 16:48:47 66° WSW 16:53:01 10° NNW
Cosmos 1933 4.5 16:46:21 10° SE 16:49:33 23° E 16:52:46 10° NE
BREEZE-M DEB (TANK) 3.8 16:49:42 10° WNW 16:51:23 18° NNW 16:53:00 10° NNE
SL-16 R/B 3.0 16:46:55 10° SSE 16:51:46 30° ESE 16:56:37 10° NE
Cosmos 1867 4.0 16:46:51 10° S 16:51:59 45° ESE 16:57:09 10° NE
Cosmos 1689 Rocket 3.9 16:53:23 13° E 16:53:42 14° E 16:55:17 10° SE
CZ-2C R/B 4.3 16:50:49 10° ESE 16:54:10 18° ENE 16:57:25 10° NNE
USA 215 3.3 16:48:31 10° NE 16:55:06 87° SE 17:01:39 10° SW
Okean-O 4.1 16:52:49 10° ESE 16:55:29 16° ENE 16:58:09 10° NNE
Cosmos 1743 Rocket 4.1 16:53:06 10° NNW 16:57:32 63° W 17:01:54 10° S
COSMO-SKYMED 1 3.3 16:53:50 10° NNE 16:57:43 31° E 17:01:35 10° SSE
ATLAS 5 CENTAUR R/B 4.5 16:53:40 10° NW 16:59:03 33° WSW 17:05:03 10° S
AQUARIUS 4.1 16:54:58 10° SSE 16:59:26 83° ENE 17:03:57 10° N
Cosmos 2298 Rocket 4.2 16:54:07 10° NNW 16:59:27 82° WSW 17:04:45 10° SSE
Cosmos 2150 Rocket 4.0 16:55:40 10° NNW 17:00:50 87° WSW 17:05:58 10° SSE
Cosmos 1818 3.5 16:56:45 10° NNW 17:02:13 70° ENE 17:07:39 10° SE
Cosmos 1606 2.7 16:58:37 10° S 17:02:27 62° E 17:06:18 10° NNE
Okean O Rocket 1.7 17:02:08 10° S 17:06:27 80° WSW 17:10:51 10° NNW
Sich 1 3.1 17:02:23 10° N 17:06:44 56° E 17:10:59 10° SSE
BREEZE-M TANK 2.7 17:01:38 10° WNW 17:07:10 78° SSW 17:10:24 10° ESE
Cosmos 2333 Rocket 4.4 17:03:27 10° WSW 17:07:46 22° NW 17:12:06 10° N
Cosmos 1782 4.3 17:05:19 10° SE 17:07:36 17° E 17:07:36 17° E
Helios 1A Rocket 4.2 17:07:32 18° ENE 17:08:05 19° ENE 17:10:55 10° NNE
OE (NEXTSAT) 4.2 17:04:48 10° WSW 17:08:15 87° SSE 17:10:22 22° ENE
ISS -2.2 17:08:23 10° W 17:11:20 27° NNW 17:13:33 15° NNE
Cosmos 2366 rocket 4.5 17:05:53 10° N 17:11:32 36° ENE 17:17:06 10° SE
Feng Yun 1-1 Rocket 4.4 17:08:33 10° SSE 17:14:15 57° ENE 17:19:50 10° N
Cosmos 1125 Rocket 3.5 17:10:26 10° NNW 17:15:40 89° ENE 17:20:53 10° SSE
Cosmos 1356 3.4 17:13:01 10° N 17:16:24 54° E 17:19:45 10° SSE
Cosmos 1805 Rocket 3.7 17:13:11 10° N 17:17:39 79° W 17:22:04 10° S
SAR-Lupe-4 3.7 17:15:58 14° NNE 17:18:55 49° E 17:22:24 10° S
Cosmos 1151 Rocket 3.3 17:15:38 10° SSE 17:19:41 42° E 17:23:24 12° NNE
CZ-4B R/B 1.5 17:18:04 10° N 17:21:07 66° WNW 17:24:11 10° SSW
Cosmos 2278 Rocket 2.8 17:17:17 10° NNW 17:22:53 60° WSW 17:28:25 10° S
IRS-1C Rocket 4.2 17:18:37 10° SE 17:23:43 52° ENE 17:28:50 10° N
Cosmos 1666 Rocket 3.6 17:19:32 10° N 17:23:52 54° E 17:28:12 10° SSE
Cosmos 1328 Rocket 3.8 17:21:31 10° SSE 17:25:35 43° E 17:28:37 17° NNE
USA 267 3.7 17:21:44 19° E 17:26:00 42° NNE 17:32:02 10° NW
Lacrosse 5 rocket 1.3 17:23:35 10° SSW 17:27:08 46° SE 17:28:08 35° E
FALCON 9 R/B 2.0 17:31:05 10° SW 17:32:59 24° SSE 17:33:18 23° SSE
CZ-2D R/B 3.3 17:29:47 10° SSE 17:33:27 51° ENE 17:37:10 10° N
ERS-2 2.8 17:30:52 10° N 17:34:27 54° WNW 17:38:01 10° SSW
SAR-Lupe-1 3.9 17:33:32 18° NNE 17:36:05 81° ESE 17:39:39 10° S
Cosmos 2341 Rocket 4.0 17:29:48 10° N 17:36:07 87° W 17:42:27 10° S
SL-24 R/B 3.6 17:32:45 13° NNE 17:36:15 69° E 17:39:57 10° S
EO 1 Delta rocket 4.5 17:30:53 10° NNE 17:36:17 63° E 17:43:06 10° S
CZ-4 R/B 2.5 17:38:23 25° NNE 17:38:23 25° NNE 17:40:26 10° N
Meteor 1-25 Rocket 4.2 17:31:15 10° N 17:36:49 61° E 17:42:25 10° SSE
Meteor 1-4 Rocket 3.5 17:33:33 10° SSE 17:35:58 30° SE 17:35:58 30° SE
CZ-3B R/B 1.9 17:39:01 10° SSW 17:42:22 37° SSE 17:42:22 37° SSE
BREEZE-M DEB (TANK) 3.7 17:41:31 10° W 17:43:13 20° NNW 17:43:13 20° NNW
SKYMED 2 3.7 17:41:33 10° N 17:45:53 73° WNW 17:50:12 10° SSW
USA 81 3.9 17:42:21 10° N 17:47:39 85° E 17:52:56 10° S
Cosmos 2237 Rocket 3.7 17:42:55 10° WSW 17:47:55 33° WNW 17:52:58 10° N
Cosmos 1939 Rocket 3.1 17:45:20 10° S 17:49:08 66° W 17:53:00 10° NNW
SL-24 DEB 4.2 17:44:40 10° N 17:49:25 67° E 17:54:05 10° S
Cosmos 2285 Rocket 4.0 17:44:53 10° NNW 17:51:13 61° ENE 17:57:28 10° SSE
H-2A R/B 2.5 17:52:26 40° ENE 17:52:26 40° ENE 17:57:02 10° N
X-37B 3.0 17:50:04 10° S 17:51:00 14° S 17:51:00 14° S
Cosmos 1633 Rocket 3.0 17:50:12 10° N 17:54:35 82° W 17:58:56 10° S
Nadezhda 3 Rocket 4.4 17:49:31 10° SSE 17:55:06 37° E 17:55:06 37° E
Cosmos 773 Rocket 3.9 17:51:27 10° SSW 17:56:41 79° ESE 17:59:15 31° NNE
USA 281 3.1 17:53:25 10° SSE 17:59:56 76° ENE 18:06:31 10° NNW
SL-8 Rocket 4.1 17:54:02 10° N 18:00:15 75° W 18:06:30 10° S
Cosmos 864 Rocket 4.4 17:53:58 10° N 18:00:19 85° E 18:06:35 10° S
Cosmos 2181 Rocket 4.4 17:56:39 10° SSW 18:03:02 65° W 18:09:24 10° N
Cosmos 2369 Rocket 3.6 17:59:39 10° N 18:02:10 21° NNE 18:02:10 21° NNE
MOS 1 Rocket 3.5 18:03:47 22° NNE 18:07:26 80° ESE 18:12:51 10° S
Abrixas rocket 4.3 18:06:44 10° W 18:08:24 22° WSW 18:08:24 22° WSW
YAOGAN 1 3.7 18:21:23 35° NNW 18:21:23 35° NNW 18:23:57 10° NNW
SL-08 R/B 4.3 18:22:50 10° N 18:29:02 89° WSW 18:35:08 10° S
Cosmos 2297 4.0 18:24:29 10° NNW 18:30:07 65° WSW 18:34:10 19° S
Okean-O 3.5 18:27:17 10° S 18:31:32 48° W 18:35:51 10° NNW
Cosmos 1943 Rocket 2.6 18:27:37 10° NNW 18:31:41 49° N 18:31:41 49° N
Meteor 1-14 Rocket 4.3 18:27:30 10° N 18:33:27 82° W 18:39:26 10° S
Cosmos 44 3.7 18:28:08 10° NNW 18:32:39 65° NNW 18:32:39 65° NNW
CZ-2C R/B 3.6 18:28:32 10° S 18:33:39 54° W 18:38:32 10° NNW
Cosmos 1515 Rocket 4.4 18:30:29 10° SSW 18:34:01 46° WSW 18:34:01 46° WSW
SL-16 R/B 3.5 18:30:30 10° SW 18:35:43 37° WNW 18:38:47 22° N
USA 215 4.4 18:35:12 26° N 18:37:38 33° NNW 18:43:19 10° W
Cosmos 1538 Rocket 4.4 18:39:16 10° SSW 18:43:58 61° WSW 18:43:58 61° WSW
Lacrosse 5 rocket 4.4 19:03:40 10° W 19:03:47 11° W 19:03:47 11° W
USA 267 3.5 19:09:07 62° WSW 19:09:07 62° WSW 19:15:17 10° NW
ATLAS CENTAUR R/B 4.0 19:10:58 10° NW 19:26:55 63° WSW 19:27:28 62° SW
H-2A R/B 4.3 19:33:04 22° WNW 19:33:04 22° WNW 19:35:53 10° NW
